Helicity
71 73 67 45 31 8 31 42 44 14 51 66 70 63 42 11 18 -9 -20 -21 5 -8 5 3 3 3 -11 -19 13 52 69 84 68 29 90 78 87 58 72 144 164 225 227 127
64 69 71 60 49 21 5 96 63 17 28 45 86 70 43 28 30 12 7 -12 -14 -10 -14 -23 0 4 -50 -65 -41 -13 84 -24 11 33 73 122 81 99 85 82 171 105 220 167
55 67 73 77 66 46 26 70 78 75 58 49 39 80 68 57 25 25 15 13 15 -2 -4 -8 -4 12 -13 -34 -52 -46 -12 -40 -18 33 19 74 101 119 114 125 143 134 113 210
56 56 63 74 85 70 35 84 97 72 90 85 70 46 75 68 46 14 20 11 21 35 38 33 44 46 33 16 3 -27 -31 -32 -79 -97 48 116 109 97 131 72 85 116 100 168
51 48 54 60 100 99 68 90 90 73 111 96 66 46 34 57 71 58 33 32 20 26 33 62 66 82 113 109 51 68 71 40 1 -140 -89 -28 -59 111 101 93 99 64 84 146
45 36 60 86 97 82 81 59 70 114 149 135 73 35 52 44 84 55 68 58 56 43 38 79 82 67 70 84 133 118 120 107 129 63 136 57 -181 -75 18 118 124 105 135 103
72 110 58 68 85 106 76 80 96 131 99 111 79 97 96 71 64 76 79 69 85 77 80 81 83 74 67 66 79 103 167 190 209 215 202 72 93 86 92 2 112 126 156 141
134 98 50 74 89 117 111 113 147 138 120 129 125 135 117 111 116 98 77 78 114 89 66 102 112 103 122 112 106 128 136 191 189 193 190 227 191 139 166 186 28 121 150 191
134 121 79 58 80 126 141 165 130 151 150 108 166 154 134 104 107 122 79 114 121 106 123 164 208 207 172 165 131 150 198 205 243 222 247 209 144 171 258 249 124 144 179 198
107 113 124 137 119 111 171 178 113 147 161 133 182 161 144 134 139 150 127 99 119 122 149 178 197 226 248 240 214 194 172 200 186 190 232 224 160 146 167 216 110 117 181 228
118 119 113 109 132 165 210 145 119 167 167 124 143 169 207 201 157 153 125 166 132 171 153 153 164 197 194 230 258 203 205 195 261 282 286 197 159 225 215 180 147 123 121 129
124 114 127 120 144 183 214 177 158 167 200 139 137 122 144 117 125 163 144 184 158 104 136 134 158 168 167 139 152 185 174 195 166 170 140 137 61 122 96 119 115 108 99 102
118 132 115 121 131 172 271 269 245 258 201 129 164 112 168 193 155 187 207 172 202 165 138 125 137 132 139 134 107 134 143 175 174 189 118 120 120 84 79 71 62 40 47 58
84 113 119 117 144 176 312 349 284 296 243 190 138 161 173 130 113 158 208 189 194 198 182 163 146 161 152 120 138 139 135 147 165 165 123 141 78 75 65 73 99 106 100 112
201 77 107 134 147 187 325 372 319 238 288 201 132 77 90 100 95 142 201 245 246 275 255 225 170 193 185 196 175 147 297 304 298 220 136 87 67 111 152 147 162 137 139 141
95 151 135 84 145 182 522 435 374 289 318 288 207 168 174 176 186 217 216 234 290 303 269 211 186 310 217 163 214 137 218 217 108 116 130 108 93 59 66 62 59 110 126 138
96 158 93 229 91 380 532 372 216 218 407 362 199 135 152 210 243 240 260 304 302 320 274 230 237 234 202 274 268 238 186 151 144 168 153 118 178 165 137 125 152 137 144 144
107 111 52 63 197 289 409 531 374 407 471 316 210 238 158 121 154 167 188 216 207 184 211 186 179 199 266 224 205 92 96 79 92 103 121 110 125 159 179 163 156 152 153 168
73 95 106 23 74 69 502 433 493 660 534 331 335 305 170 169 219 204 149 122 108 142 143 158 125 159 208 133 104 111 108 86 95 121 108 145 142 144 159 158 133 123 118 147
86 85 124 155 133 111 400 639 609 644 446 410 373 417 390 324 263 195 157 104 102 87 125 200 174 217 240 146 170 160 115 87 60 73 43 71 92 116 143 123 95 91 120 135
123 91 154 133 113 134 87 173 332 374 407 441 476 391 468 355 289 290 213 186 166 119 96 147 138 181 60 118 107 81 68 49 57 102 131 113 95 101 99 96 91 107 98 89
115 113 106 69 138 160 135 45 134 233 330 445 491 449 473 453 398 385 230 227 216 172 212 174 156 84 109 85 100 77 70 52 58 68 75 83 98 92 101 107 107 119 113 113
168 114 100 89 114 178 216 284 326 268 256 202 241 387 428 439 296 311 269 230 226 223 193 190 152 121 146 143 68 67 71 73 94 107 73 75 91 119 139 131 131 155 130 129
195 157 156 104 150 135 186 153 82 144 167 155 229 322 265 300 273 267 213 263 305 198 247 237 148 151 131 131 121 89 99 131 154 177 145 139 129 137 125 96 84 109 130 104
197 151 133 141 156 205 173 132 143 135 104 212 266 295 266 262 266 272 330 262 241 180 202 113 148 149 140 175 136 124 135 135 165 185 208 215 202 165 135 120 101 111 133 140
163 170 190 149 127 119 124 126 137 105 101 214 183 147 119 173 244 245 200 239 192 156 194 224 232 196 166 162 133 133 135 144 157 160 153 137 142 138 116 100 110 115 115 122
200 233 189 180 177 93 74 128 130 145 154 152 111 100 117 164 150 164 178 225 230 204 250 283 266 198 174 144 143 153 161 154 141 113 121 122 98 72 85 95 91 92 93 101
Wind_Speed
75 79 83 85 86 80 50 45 45 48 36 42 40 34 29 27 25 26 27 27 27 26 26 24 23 27 32 27 30 33 28 27 13 24 32 33 40 43 46 52 48 49 54 62
73 76 79 82 83 78 55 47 39 42 37 42 40 31 28 25 22 20 20 20 20 20 18 18 19 22 23 20 22 27 35 23 40 18 34 41 49 54 55 62 55 62 62 65
72 75 77 79 79 77 50 49 45 44 47 45 39 33 27 24 21 20 18 15 16 14 12 14 15 16 17 18 18 14 11 31 28 36 14 27 38 41 55 58 71 62 65 52
68 71 74 76 78 77 48 47 45 41 47 48 45 37 30 28 25 18 18 18 14 12 12 11 10 11 11 12 13 12 11 17 15 30 32 44 45 39 56 66 64 70 61 61
67 66 68 73 75 74 47 48 44 41 43 40 43 39 34 30 27 22 23 19 19 18 15 14 13 14 14 12 14 12 17 7 18 20 11 16 13 54 52 62 77 82 76 81
62 65 67 67 67 61 47 45 42 44 42 40 43 41 40 36 30 26 26 27 25 22 23 22 23 20 18 17 20 17 20 17 20 16 39 37 47 37 35 64 65 72 77 77
59 63 59 57 56 53 44 42 43 48 52 42 43 42 38 37 33 36 34 27 29 29 28 30 29 26 23 20 19 20 24 24 28 32 39 26 29 42 45 38 76 80 81 78
49 51 49 47 48 49 44 40 45 46 54 47 48 41 41 40 39 37 36 31 29 27 29 37 38 34 34 29 24 22 24 28 28 25 27 57 55 41 41 42 39 69 72 70
37 35 34 32 35 37 38 36 33 41 52 51 43 41 39 45 43 43 38 34 30 29 32 37 44 44 36 35 33 29 28 33 32 31 34 37 47 35 41 42 52 43 46 47
39 36 35 32 31 30 32 32 24 32 44 36 30 38 36 28 35 38 32 28 27 27 34 39 42 45 35 41 38 35 36 37 35 39 44 58 46 30 26 40 44 38 45 48
40 37 36 34 31 29 32 36 26 32 40 41 30 30 33 35 30 33 28 29 30 27 29 34 37 39 34 40 39 39 36 36 43 42 43 60 34 32 45 40 36 35 34 33
42 38 35 32 27 24 24 40 30 31 41 45 36 30 31 31 28 30 23 34 27 21 27 27 32 35 34 37 46 38 44 40 45 39 45 41 30 38 34 34 36 38 39 41
48 44 41 38 34 28 24 37 30 36 48 55 49 46 38 34 30 27 33 32 26 29 28 31 33 38 34 41 40 41 41 38 48 54 49 45 45 40 39 40 39 38 40 39
57 53 49 45 40 35 30 35 30 36 42 56 51 36 42 35 26 25 27 24 24 26 30 37 41 42 37 41 47 46 43 36 46 56 63 64 52 42 41 38 41 45 44 40
74 62 56 51 46 40 39 39 36 31 40 52 48 38 36 31 28 26 27 26 31 36 40 43 50 46 51 54 58 57 37 48 53 68 54 50 48 45 41 32 37 38 41 44
76 72 68 56 50 41 39 58 49 35 35 52 63 45 45 39 32 31 31 29 33 37 43 50 48 48 52 58 59 50 40 40 38 48 55 56 51 52 50 47 46 39 36 39
71 75 71 72 53 43 50 55 46 29 25 45 58 57 45 36 34 39 39 42 44 45 48 52 54 53 47 61 73 64 57 60 60 55 59 68 58 58 47 46 45 41 37 35
68 72 77 72 69 45 53 46 21 19 32 40 56 56 50 36 44 45 44 47 48 49 53 51 53 51 54 72 67 67 68 67 64 59 54 60 51 47 44 42 41 40 37 33
61 62 68 56 52 50 49 32 20 31 39 51 54 59 65 36 45 43 45 45 54 46 53 52 47 57 63 59 66 66 60 57 59 59 57 55 54 50 44 40 41 42 38 33
49 50 42 43 37 3 17 36 45 46 45 45 56 44 56 38 42 46 45 46 54 62 59 49 62 76 69 67 63 62 65 65 59 66 65 56 54 46 44 45 40 38 37 34
33 39 40 25 16 29 36 39 41 49 53 50 49 43 41 35 42 44 42 47 49 64 61 59 68 76 61 48 47 48 53 56 53 51 44 40 40 38 36 37 32 32 32 31
23 25 23 19 32 31 33 34 32 37 50 39 39 40 40 40 39 43 41 49 45 61 40 55 68 59 42 40 43 47 52 51 48 45 44 43 40 38 40 40 38 33 31 31
21 26 22 20 21 27 31 35 40 42 30 31 34 42 42 42 44 42 43 50 52 35 50 59 56 43 41 41 41 44 46 45 42 42 39 38 38 39 39 40 39 37 35 32
22 19 21 13 17 20 21 19 25 36 40 30 28 40 45 44 45 45 44 46 42 49 57 57 48 39 32 35 34 36 41 41 39 38 38 38 37 35 34 34 34 32 33 30
17 20 23 19 27 33 32 30 31 36 22 24 35 43 46 48 47 45 43 46 52 50 57 45 34 28 24 27 31 35 37 37 38 38 38 39 39 36 34 35 34 32 32 33
16 22 24 32 30 33 34 33 38 36 26 31 35 36 42 47 46 47 51 54 57 52 43 33 25 25 26 27 30 34 35 36 37 38 38 39 40 39 39 37 38 39 39 42
19 24 27 26 35 37 37 32 29 18 19 29 28 34 39 31 42 50 44 53 50 40 35 27 23 22 27 30 32 35 35 37 39 39 39 40 41 40 42 44 47 48 48 49
Wind_Direction
341 341 336 341 346 352 9 8 10 18 39 25 31 38 57 77 83 91 93 100 108 110 110 109 117 127 139 317 186 236 269 273 268 245 266 266 258 254 244 247 252 255 253 254
337 340 339 339 342 350 1 2 6 15 24 18 22 35 41 52 66 78 84 92 104 107 112 105 118 138 124 105 96 172 273 122 144 146 254 265 259 256 257 258 263 251 249 253
333 333 336 337 342 345 357 351 351 360 8 8 11 16 21 27 44 47 60 64 73 81 90 121 100 119 117 114 116 93 75 163 157 171 177 270 249 253 259 257 254 256 252 261
329 330 332 334 333 340 351 349 345 351 345 353 359 6 7 4 7 28 33 35 42 42 34 48 51 68 92 90 67 95 99 156 156 185 298 282 271 256 254 256 258 257 259 262
325 328 332 331 331 332 346 340 342 345 340 345 348 350 354 352 357 3 0 1 11 14 9 8 9 17 12 12 7 1 342 332 327 198 206 292 236 270 264 257 257 258 259 259
322 323 327 330 332 336 338 341 341 335 332 334 336 339 341 344 349 352 349 347 347 343 346 354 353 354 351 346 338 337 327 318 317 295 303 300 216 214 256 266 263 260 259 259
318 319 322 328 333 338 338 337 334 326 319 321 325 330 333 333 335 333 338 339 334 341 345 340 336 334 332 328 323 323 320 308 305 305 304 243 285 293 284 239 267 264 264 263
319 320 321 325 328 333 333 335 328 322 314 316 318 320 322 326 327 325 326 329 333 339 336 327 324 323 321 314 309 305 306 308 306 295 282 293 297 295 285 279 265 269 268 265
315 316 319 325 327 331 334 335 336 325 316 316 322 321 321 321 322 323 326 332 335 333 326 320 312 310 318 317 318 308 298 297 295 300 297 294 308 305 295 293 281 288 281 270
306 309 310 311 316 321 328 332 337 330 320 326 328 322 326 338 332 329 336 339 339 339 325 316 311 309 317 307 305 303 300 295 274 279 291 296 302 313 315 290 302 301 288 280
299 299 301 303 302 307 315 320 322 318 316 318 318 319 319 325 325 325 340 340 334 333 326 326 325 320 320 313 308 305 294 292 291 288 287 294 306 302 283 301 309 306 303 298
291 291 289 289 288 291 302 307 314 312 309 314 326 322 322 319 321 320 319 322 333 340 336 334 334 326 327 321 312 310 300 293 298 288 296 308 311 303 302 306 305 303 300 293
288 284 282 283 279 273 279 300 306 308 306 306 306 303 308 309 307 312 305 309 318 323 333 331 325 316 324 315 311 305 303 302 298 298 298 291 293 297 295 299 300 303 301 295
290 284 281 276 275 266 260 285 291 298 307 303 305 316 309 319 316 308 310 312 320 323 321 316 316 312 319 316 312 307 309 313 305 299 298 297 295 288 289 288 293 294 293 292
305 287 281 276 270 266 262 273 280 273 286 302 308 318 321 323 320 308 302 295 297 301 302 304 305 306 306 304 303 299 304 300 298 298 311 307 310 312 307 288 290 290 288 287
297 302 299 278 265 259 274 281 277 265 277 294 295 307 306 305 303 298 298 300 301 298 299 301 304 304 301 300 296 307 312 301 295 301 308 307 305 304 306 302 301 296 291 289
298 299 292 303 267 250 259 280 291 241 261 287 293 295 304 305 302 300 298 298 300 299 297 295 297 300 296 295 292 306 306 302 301 303 304 300 299 299 302 303 304 303 300 296
302 299 292 288 296 252 259 274 261 216 275 285 289 293 296 300 297 298 300 298 298 298 298 299 295 299 294 293 300 301 301 302 302 302 303 301 304 303 305 304 304 301 298 298
310 306 301 292 279 284 278 257 215 270 279 276 281 284 291 296 299 302 300 299 296 301 295 296 299 293 288 298 303 303 304 304 302 305 308 307 302 296 297 299 304 299 297 296
319 319 310 299 291 261 294 277 270 272 273 282 282 287 287 293 297 296 300 302 297 294 296 302 294 292 294 298 299 301 301 300 299 298 301 305 305 299 293 294 300 299 299 297
339 330 313 314 307 293 286 282 276 271 274 281 283 275 284 296 294 299 301 304 305 298 297 295 297 296 305 311 310 311 310 309 306 303 301 311 316 317 310 307 306 302 302 300
341 1 5 330 302 296 286 279 285 284 284 289 286 280 287 295 294 300 300 301 305 299 313 303 300 308 316 318 315 316 314 313 313 310 304 302 308 314 315 311 308 307 307 305
346 348 355 349 326 299 289 283 289 289 296 300 290 287 288 292 288 298 299 297 295 314 306 303 307 317 318 319 320 320 322 324 323 322 325 321 314 315 316 315 312 305 304 305
323 336 335 345 345 328 305 297 305 301 297 298 294 289 292 293 288 294 294 296 299 299 302 305 313 318 322 325 332 335 335 337 337 335 336 335 332 328 330 330 329 324 315 316
329 329 328 326 323 318 320 321 314 307 311 304 297 293 288 289 288 289 294 293 292 299 304 312 324 331 339 342 343 343 346 349 348 343 339 337 337 340 341 338 336 333 327 321
320 323 329 326 324 321 317 314 308 306 306 305 302 300 294 285 286 288 287 287 287 301 311 322 330 331 336 345 345 345 349 350 347 343 343 343 341 336 331 335 333 329 326 319
316 316 311 314 316 319 323 320 316 327 324 311 315 310 298 304 292 287 288 291 299 304 312 331 337 338 333 334 339 341 345 346 343 341 339 337 336 334 333 328 325 323 320 317